Flag for Austria Weather past 2 weeks in Tulln an der Donau, Lower Austria, Austria

Now
43 °F

Scattered clouds.


Feels Like: 36 °F
Forecast: 33 / 44 °F
Wind: 12 mph from Northwest

Location: Tulln Airport

Current Time: Mar 4, 2015 at 12:55:28 PM

Latest Report: Mar 4, 2015 at 11:50 AM


Visibility: 25 mi

Pressure: 30.24 "Hg

Humidity: 71%

Dew point: 34 °F

Location of Tulln an der DonauLocation

Historic Weather in Tulln an der Donau — Graph

°F

Tulln an der Donau temperature yesterday

Maximum temperature yesterday: 48 °F (at 12:50 PM)
Minimum temperature yesterday: 36 °F (at 4:50 AM)
Average temperature yesterday: 42 °F

Past Weeks' High & Low Weather Summary

 TemperatureHumidityPressure
High52 °F (Feb 20, 1:50 PM)100% (Feb 20, 7:50 AM)30.74 "Hg (Feb 20, 7:50 AM)
Low23 °F (Feb 20, 4:50 AM)43% (Mar 3, 12:50 PM)29.56 "Hg (Feb 21, 7:50 PM)
Average40 °F79%30.03 "Hg
* Reported Feb 17 10:50 AM — Mar 4 10:50 AM, Tulln an der Donau, Weather by CustomWeather, © 2015

Note: Actual official high and low records may vary slightly from our data, if they occured in-between our weather recording intervals... More about our weather records

Advertising

Tulln an der Donau weather history for previous 24 hours

 ConditionsComfort  
Time TempWeatherWind HumidityBarometerVisibility
10:50 AM
Wed, Mar 4
43 °FPartly sunny.26 mph76%30.24 "Hg25 mi
9:50 AM43 °FBroken clouds.29 mph76%30.24 "Hg25 mi
8:50 AM41 °FBroken clouds.24 mph76%30.21 "Hg25 mi
7:50 AM39 °FLight rain. Partly sunny.21 mph81%30.18 "Hg16 mi
6:50 AM41 °FPartly sunny.18 mph66%30.15 "Hg22 mi
5:50 AM32 °FPartly cloudy.6 mph80%30.12 "Hg28 mi
4:50 AM30 °FPassing clouds.3 mph86%30.09 "Hg25 mi
9:50 PM
Tue, Mar 3
36 °FPassing clouds.6 mph70%30.18 "Hg25 mi
7:50 PM37 °FPassing clouds.2 mph70%30.21 "Hg25 mi
6:50 PM43 °FPassing clouds.7 mph57%30.21 "Hg25 mi
5:50 PM45 °FPassing clouds.9 mph53%30.18 "Hg37 mi
4:50 PM46 °FPassing clouds.15 mph53%30.18 "Hg37 mi
3:50 PM48 °FScattered clouds.18 mph46%30.18 "Hg37 mi
2:50 PM48 °FScattered clouds.22 mph46%30.18 "Hg37 mi
1:50 PM48 °FScattered clouds.18 mph43%30.18 "Hg37 mi
12:50 PM48 °FScattered clouds.22 mph43%30.21 "Hg31 mi
Weather by CustomWeather, © 2015

See weather overviewHow to use our weather pages